Regional Weather Roundup
Issued by NWS

Home | Current Version | Previous Version | Graphics & Text | Print | Product List | Glossary On
Versions: 1 2 3 4 5 6 7 8 9 10 11 12 13 14 15 16 17 18 19 20 21 22 23 24 25 26 27 28 29 30 31 32 33 34 35 36 37 38 39 40 41 42 43 44 45 46 47 48 49 50
000
ASUS43 KDTX 271410
RWRMI
MICHIGAN HOURLY REGIONAL WEATHER ROUNDUP
NATIONAL WEATHER SERVICE DETROIT/PONTIAC MI
1000 AM EDT FRI MAY 27 2016

NOTE: "FAIR" INDICATES FEW OR NO CLOUDS BELOW 12,000 FEET WITH NO
SIGNIFICANT WEATHER AND/OR OBSTRUCTION TO VISIBILITY.

MIZ047>049-052>055-059>063-066>070-074>076-081>083-271500-
SOUTHEAST LOWER MICHIGAN

CITY           SKY/WX    TMP DP  RH WIND       PRES   REMARKS
ADRIAN         SUNNY     73  63  70 SW7       29.99S
ALMA           MOSUNNY   71  67  87 S9        29.96S
ANN ARBOR      SUNNY     73  66  78 S8        29.98S
BAD AXE        SUNNY     75  65  70 CALM      29.98R
CARO           MOSUNNY   75  65  70 CALM      29.97R
DETROIT CITY   SUNNY     77  64  64 SW5       29.97S
DETROIT        PTSUNNY   74  65  73 SW7       29.99R
FLINT          SUNNY     77  64  64 CALM      29.97S
GROSSE ILE     MOSUNNY   70  64  83 S10       29.98R
HILLSDALE      SUNNY     71  62  72 S5        29.99S
HOWELL         CLOUDY    74  66  75 CALM      29.98S

CITY           SKY/WX    TMP DP  RH WIND       PRES   REMARKS
JACKSON        MOSUNNY   75  66  73 SW3       29.97S
LAMBERTVILLE   MOSUNNY   74  64  72 S7        30.00S
LANSING        CLOUDY    74  65  73 CALM      29.96F
LAPEER         FAIR      77  62  60 CALM      29.98S
MASON          CLOUDY    73  65  76 S3        29.97S
MONROE         MOSUNNY   74  66  74 S7        29.99R
PONTIAC        MOSUNNY   75  65  70 CALM      29.97S
PORT HOPE        N/A     56  56 100 E3        29.97R
PORT HURON     MOSUNNY   75  66  73 CALM      29.97S
TRI CITIES     MOSUNNY   78  62  57 CALM      29.96S
MIDLAND        FAIR      76  64  65 CALM      29.95S
TROY           SUNNY     76  66  69 CALM      29.99S
SAGINAW HB     MOSUNNY   75  61  60 CALM      29.96S
$$
MIZ043>046-050>051-056>058-064>065-071>073-077>080-271500-
SOUTHWEST LOWER MICHIGAN

CITY           SKY/WX    TMP DP  RH WIND       PRES   REMARKS
BATTLE CREEK   MOSUNNY   71  65  81 SW8       29.97S
BENTON HARBOR  CLOUDY    72  64  76 S13G18    29.93R
BIG RAPIDS     CLOUDY    69  67  93 S5        29.94S FOG
COLDWATER      CLOUDY    73  64  72 SW8       29.98S
FREMONT        CLOUDY    69  69 100 S3        29.93R
HOLLAND        SUNNY     74  67  78 S8        29.93S
GRAND RAPIDS   MOSUNNY   76  67  73 SE7       29.93F
IONIA          FAIR      72  64  76 S3        29.95S
KALAMAZOO      SUNNY     72  63  73 S9        29.96S
LUDINGTON      MOSUNNY   68  65  91 SE8       29.90F FOG
MARSHALL       PTSUNNY   73  65  75 S5        29.96F
MOUNT PLEASANT MOSUNNY   73  67  81 CALM      29.94F
MUSKEGON       PTSUNNY   75  64  68 S6        29.92S
SOUTH HAVEN    CLOUDY    73  65  75 S6        29.93R
$$
MIZ016>042-271500-
NORTHERN LOWER MICHIGAN

CITY           SKY/WX    TMP DP  RH WIND       PRES   REMARKS
ALPENA         CLOUDY    62  61  96 CALM      29.97S FOG
BEAVER ISLAND  SUNNY     69  63  81 CALM      29.92F
BELLAIRE       SUNNY     73  62  69 CALM      29.92F
CADILLAC       SUNNY     75  65  71 SE3       29.94S
CHARLEVOIX     SUNNY     68  63  86 E6        29.94F
FRANKFORT      SUNNY     76  66  72 S3        29.90R
GAYLORD        SUNNY     73  61  65 CALM      29.96R
GRAYLING       SUNNY     73  62  67 CALM      29.96F
HARBOR SPRINGS SUNNY     69  63  82 E3        29.93S
HOUGHTON LAKE  SUNNY     74  61  63 S5        29.96S
MANISTEE       SUNNY     73  63  68 E6        29.90F
OSCODA         CLOUDY    61  56  85 E6        29.98R
PELLSTON       SUNNY     70  59  68 SE6       29.94S
ROGERS CITY    SUNNY     65  63  93 SE5       29.97S
TRAVERSE CITY  MOSUNNY   70  61  73 CALM      29.89F
$$
MIZ007>008-015-271500-
EASTERN UPPER MICHIGAN

CITY           SKY/WX    TMP DP  RH WIND       PRES   REMARKS
KINROSS          N/A     61  61 100 E3        29.95S
MACKINAC ISLAN SUNNY     60  60  98 CALM      29.94S
NEWBERRY       SUNNY     65  63  94 S3        29.93S
S. S. MARIE    FOG       59  57  93 VRB3      29.96R VSB 1/2
MUNISING         N/A     66  61  84 SE3       29.89F
$$
MIZ004>006-011>014-085-271500-
CENTRAL UPPER MICHIGAN

CITY           SKY/WX    TMP DP  RH WIND       PRES   REMARKS
MANISTIQUE     FOG       56  55  97 E5        29.92F VSB<1/4
ESCANABA       SUNNY     61  57  88 MISG      29.89F
MENOMINEE      SUNNY     64  57  77 E6        29.90R
SAWYER-GWINN   CLOUDY    59  59 100 CALM      29.91S FOG
$$
MIZ001>003-009>011-084-271500-
WESTERN UPPER MICHIGAN

CITY           SKY/WX    TMP DP  RH WIND       PRES   REMARKS
IRON MOUNTAIN  SUNNY     71  59  65 CALM      29.88S
HOUGHTON       FOG       57  55  93 CALM      29.90R VSB<1/4
COPPER HARBOR    N/A     46  46 100 CALM      29.90R
IRONWOOD       CLOUDY    59  57  94 CALM      29.87R
$$

ABBREVIATIONS USED IN REMARKS
   TC - TEMPERATURE IN CELSIUS
  WCI - WIND CHILL INDEX
   HX - HEAT INDEX
  VSB - VISIBILITY





USA.gov is the U.S. government's official web portal to all federal, state and local government web resources and services.